This is the latest recevied weather packets stored in our database for station/object KK4JIV-13. If no packets are shown the sender has not sent any weather packets the latest 1 day(s).
| Time | Temp. | Humidity | Pressure | Rain* | Wind** | Luminosity | Snow |
|---|---|---|---|---|---|---|---|
| 1777988197 | 24.44° C | 68% | 1016.1 hPa | 0 mm | 0.45 m/s, 174° | 404 W/m² | - |
| 1777987893 | 23.89° C | 68% | 1016 hPa | 0 mm | 1.79 m/s, 133° | 391 W/m² | - |
| 1777987589 | 23.89° C | 68% | 1016 hPa | 0 mm | 0.89 m/s, 114° | 377 W/m² | - |
| 1777987287 | 23.89° C | 70% | 1015.8 hPa | 0 mm | 0 m/s | 362 W/m² | - |
| 1777986983 | 23.89° C | 68% | 1015.9 hPa | 0 mm | 0.45 m/s, 94° | 327 W/m² | - |
| 1777986681 | 22.78° C | 70% | 1015.8 hPa | 0 mm | 0.89 m/s, 87° | 334 W/m² | - |
| 1777986379 | 22.78° C | 71% | 1015.7 hPa | 0 mm | 1.79 m/s, 89° | 282 W/m² | - |
| 1777986078 | 22.22° C | 72% | 1015.7 hPa | 0 mm | 0.89 m/s, 96° | 299 W/m² | - |
| 1777985773 | 21.67° C | 73% | 1015.8 hPa | 0 mm | 1.79 m/s, 84° | 261 W/m² | - |
| 1777985471 | 21.67° C | 73% | 1015.8 hPa | 0 mm | 1.34 m/s, 107° | 269 W/m² | - |
| 1777985167 | 21.11° C | 75% | 1015.7 hPa | 0 mm | 0.45 m/s, 338° | 241 W/m² | - |
| 1777984863 | 21.67° C | 75% | 1015.8 hPa | 0 mm | 1.34 m/s, 90° | 228 W/m² | - |
| 1777984559 | 21.11° C | 75% | 1015.9 hPa | 0 mm | 0 m/s | 189 W/m² | - |
| 1777984256 | 21.11° C | 75% | 1015.8 hPa | 0 mm | 0.89 m/s, 88° | 160 W/m² | - |
| 1777983953 | 21.11° C | 76% | 1015.7 hPa | 0 mm | 0.45 m/s, 89° | 163 W/m² | - |
| 1777983650 | 20.56° C | 77% | 1015.7 hPa | 0 mm | 0 m/s | 169 W/m² | - |
| 1777983346 | 20° C | 79% | 1015.4 hPa | 0 mm | 0.89 m/s, 119° | 152 W/m² | - |
| 1777983043 | 19.44° C | 80% | 1015.7 hPa | 0 mm | 0.89 m/s, 120° | 132 W/m² | - |
| 1777982740 | 18.89° C | 81% | 1015.7 hPa | 0 mm | 0.45 m/s, 123° | 123 W/m² | - |
| 1777982435 | 18.33° C | 82% | 1015.5 hPa | 0 mm | 0.89 m/s, 159° | 106 W/m² | - |
| 1777982130 | 18.33° C | 84% | 1015.5 hPa | 0 mm | 0 m/s | 71 W/m² | - |
| 1777981823 | 17.78° C | 84% | 1015.5 hPa | 0 mm | 0 m/s | 83 W/m² | - |
| 1777981520 | 16.67° C | 86% | 1015.4 hPa | 0 mm | 0 m/s | 73 W/m² | - |
| 1777981216 | 16.11° C | 88% | 1015.2 hPa | 0 mm | 0 m/s | 62 W/m² | - |
| 1777980912 | 16.11° C | 89% | 1015.3 hPa | 0 mm | 0.45 m/s, 110° | 38 W/m² | - |
* Rain latest hour (hover to see other rain measurements)
** Current wind speed in m/s (hover to see current wind gust speed)